Espaço - Ciências - Fenômenos Naturais
Meteógrafos Informações Meteorológicas em tempo real

Aeroporto internacional Salgado Filho

Histórico do Tempo
Temperatura atual: 17 graus 62 F    Umidade relativa: 93 %
Velocidade do vento: 05 nós 9 Km/h    Direção: 160 graus SSE
Ajuste do altímetro ..: 1012 HPA
Visibilidade: Ótima    Tempo presente: Parcialmente Nublado

Observação
Céu nublado a 800 Pés., Céu encoberto a2500 Pés.

Data Hora BRTTempo°CUmidadePressãoVentoVisib.
24/05 - 07:56   Parcialmente Nublado 17° 93% 1012 Sul-sudeste/9 km/h 7000
24/05 - 06:56   Chuvisco fraco 17° 93% 1012 Este-sudeste/9 km/h 5000
24/05 - 05:56   Parcialmente Nublado 17° 93% 1011 Sudeste/18 km/h 6000
24/05 - 04:56   Chovendo fraco 17° 100% 1013 Sul-sudeste/7 km/h 4500
24/05 - 03:56   Chovendo fraco 17° 93% 1014 /3 km/h 4000
24/05 - 02:56   Chovendo fraco 17° 93% 1015 Sul-sudeste/9 km/h 4000
24/05 - 01:56   Chovendo fraco 17° 100% 1015 Sul/9 km/h 4000
24/05 - 00:56   Chovendo fraco 17° 100% 1015 Sul/3 km/h 5000
23/05 - 23:56   Parcialmente Nublado 17° 100% 1015 Sudeste/7 km/h 7000
23/05 - 22:56   Névoa úmida 17° 100% 1015 Este-sudeste/9 km/h 5000
23/05 - 21:56   Chovendo fraco 17° 100% 1015 Sudeste/5 km/h 4000
23/05 - 20:56   Chovendo fraco 17° 100% 1016 Sudeste/9 km/h 2500
23/05 - 19:56   Chovendo fraco 17° 100% 1015 Sul-sudeste/12 km/h 2500
23/05 - 18:56   Chovendo fraco 17° 100% 1015 Este-sudeste/5 km/h 2200
23/05 - 17:56   Chovendo 17° 100% 1015 Leste/9 km/h 2200
23/05 - 16:56   Chovendo fraco 18° 93% 1014 Sudeste/9 km/h 3000
23/05 - 15:56   Chovendo fraco 18° 93% 1014 Leste/7 km/h 4000
23/05 - 14:56   Chovendo fraco 18° 93% 1015 Sudeste/10 km/h 2500
23/05 - 13:56   Chovendo 18° 100% 1015 Leste/10 km/h 2500
23/05 - 12:56   Chovendo 19° 93% 1016 Norte-noroeste/7 km/h 3000
23/05 - 11:56   Parcialmente Nublado 19° 93% 1016 Sudeste/12 km/h 9000
23/05 - 10:56   Chovendo fraco 19° 93% 1016 Nordeste/7 km/h 2500
23/05 - 09:56   Parcialmente Nublado 19° 88% 1016 Norte-nordeste/9 km/h OK
23/05 - 08:56   Parcialmente Nublado 19° 88% 1015 Sul-sudeste/12 km/h OK


Apolo11.com - Todos os direitos reservados - 2000 - 2019
Política de Privacidade   |     Termo de Uso e Licenciamento   |  -   Entre em Contato

"Política é a guerra sem sangue enquanto a guerra é a política com sangue" - Mao Tsé-Tung